This is the latest recevied weather packets stored in our database for station/object SP1BMW-13. If no packets are shown the sender has not sent any weather packets the latest 10 day(s).
| Time | Temp. | Humidity | Pressure | Rain* | Wind** | Luminosity | Snow |
|---|---|---|---|---|---|---|---|
| 1787936898 | 21.67° C | 75% | 1007.5 hPa | 0 mm | 0.45 m/s, 12° | 13 W/m² | - |
| 1787936838 | 21.67° C | 75% | 1007.5 hPa | 0 mm | 0 m/s | 13 W/m² | - |
| 1787936777 | 21.67° C | 74% | 1007.5 hPa | 0 mm | 0 m/s | 14 W/m² | - |
| 1787936718 | 21.67° C | 74% | 1007.5 hPa | 0 mm | 0.45 m/s, 24° | 15 W/m² | - |
| 1787936657 | 21.67° C | 74% | 1007.7 hPa | 0 mm | 0.89 m/s, 48° | 15 W/m² | - |
| 1787936598 | 21.67° C | 74% | 1007.8 hPa | 0 mm | 0.45 m/s, 23° | 16 W/m² | - |
| 1787936538 | 21.67° C | 74% | 1007.8 hPa | 0 mm | 0.45 m/s, 3° | 16 W/m² | - |
| 1787936477 | 21.67° C | 75% | 1007.9 hPa | 0 mm | 0 m/s | 15 W/m² | - |
| 1787936418 | 21.67° C | 74% | 1007.7 hPa | 0 mm | 0.45 m/s, 328° | 14 W/m² | - |
| 1787936358 | 21.11° C | 74% | 1007.8 hPa | 0 mm | 0.45 m/s, 244° | 13 W/m² | - |
| 1787936298 | 21.11° C | 74% | 1007.5 hPa | 0 mm | 0.45 m/s, 293° | 13 W/m² | - |
| 1787936238 | 21.11° C | 74% | 1007.4 hPa | 0 mm | 0.45 m/s, 95° | 13 W/m² | - |
| 1787936178 | 21.11° C | 75% | 1007.2 hPa | 0 mm | 0 m/s | 12 W/m² | - |
| 1787936118 | 21.11° C | 74% | 1007 hPa | 0 mm | 0.89 m/s, 268° | 12 W/m² | - |
| 1787936057 | 21.11° C | 75% | 1007 hPa | 0 mm | 0.89 m/s, 94° | 12 W/m² | - |
| 1787935998 | 21.11° C | 75% | 1006.9 hPa | 0 mm | 0.45 m/s, 17° | 12 W/m² | - |
| 1787935937 | 21.67° C | 75% | 1006.7 hPa | 0 mm | 0.45 m/s, 141° | 12 W/m² | - |
| 1787935878 | 21.67° C | 74% | 1006.8 hPa | 0 mm | 1.79 m/s, 63° | 13 W/m² | - |
| 1787935817 | 21.67° C | 75% | 1006.9 hPa | 0 mm | 0.45 m/s, 59° | 15 W/m² | - |
| 1787935757 | 21.67° C | 75% | 1007 hPa | 0 mm | 0.45 m/s, 53° | 17 W/m² | - |
| 1787935698 | 21.67° C | 74% | 1007.1 hPa | 0 mm | 0.89 m/s, 31° | 18 W/m² | - |
| 1787935638 | 21.67° C | 74% | 1007 hPa | 0 mm | 0.89 m/s, 47° | 19 W/m² | - |
| 1787935578 | 21.67° C | 74% | 1007.3 hPa | 0 mm | 1.34 m/s, 58° | 20 W/m² | - |
| 1787935517 | 21.67° C | 74% | 1007.5 hPa | 0 mm | 2.24 m/s, 42° | 22 W/m² | - |
| 1787935457 | 21.67° C | 74% | 1007.8 hPa | 0 mm | 0 m/s | 23 W/m² | - |
* Rain latest hour (hover to see other rain measurements)
** Current wind speed in m/s (hover to see current wind gust speed)